Location: *
(46.3500°N, 10.9000°E)
Time: 06:56:52
(UTC+00:00)

Daily predictions for brighter satellites

Satellite Brightness Start Highest point End
(mag) Time Altitude Azimuth Time Altitude Azimuth Time Altitude Azimuth
Cosmos 1603 4.1 18:17:49 10° SSW 18:23:25 72° WNW 18:29:02 10° NNE
H-2A R/B 2.2 18:18:45 10° SSE 18:23:47 56° ENE 18:28:44 10° N
COSMOS 2455 3.5 18:18:44 10° NNW 18:24:26 41° NE 18:30:05 10° ESE
STARLINK-1215 3.8 18:22:00 10° NW 18:24:58 39° NNE 18:27:55 10° E
STARLINK-1231 3.8 18:22:27 10° NW 18:25:25 39° NNE 18:28:23 10° E
STARLINK-1232 3.8 18:23:21 10° NW 18:26:20 39° NNE 18:29:18 10° E
HJ-1C 3.6 18:23:10 10° S 18:26:31 77° W 18:29:55 10° NNW
STARLINK-1217 3.8 18:23:48 10° NW 18:26:46 40° NNE 18:29:45 10° E
STARLINK-1208 3.8 18:24:12 10° NW 18:27:13 40° NNE 18:30:13 10° E
Abrixas rocket 2.1 18:24:21 10° WNW 18:27:19 68° NNE 18:30:16 10° E
STARLINK-1229 3.7 18:24:41 10° NW 18:27:41 40° NNE 18:30:39 10° E
STARLINK-1271 3.7 18:25:09 10° NW 18:28:08 40° NNE 18:31:07 10° E
STARLINK-1270 3.7 18:25:36 10° NW 18:28:36 40° NNE 18:31:34 10° E
Cosmos 2251 Rocket 4.5 18:23:22 10° SW 18:28:38 56° WNW 18:33:57 10° NNE
STARLINK-1154 3.7 18:26:03 10° NW 18:29:02 41° NNE 18:32:02 10° E
STARLINK-1197 3.7 18:26:57 10° NW 18:29:56 41° NNE 18:32:55 10° E
STARLINK-1189 3.7 18:27:23 10° NW 18:30:23 41° NNE 18:33:22 10° E
Cosmos 1140 Rocket 4.1 18:26:03 10° SSE 18:30:42 34° ESE 18:35:20 10° NE
STARLINK-1198 3.7 18:27:52 10° NW 18:30:51 42° NNE 18:33:50 10° E
STARLINK-1188 3.7 18:28:17 10° NW 18:31:16 42° NNE 18:34:16 10° E
STARLINK-1235 3.4 18:28:55 10° NW 18:32:00 50° NNE 18:35:05 10° ESE
STARLINK-1187 3.5 18:29:20 10° NW 18:32:25 46° NNE 18:35:29 10° E
Ariane Rocket 3.0 18:27:59 10° SSE 18:33:02 77° ENE 18:38:07 10° NNW
STARLINK-1199 3.6 18:30:14 10° NW 18:33:15 43° NNE 18:36:18 10° E
Cosmos 1943 Rocket 4.1 18:28:49 10° NW 18:33:38 31° WSW 18:38:28 10° SSW
STARLINK-1191 3.6 18:30:40 10° NW 18:33:43 43° NNE 18:36:44 10° E
STARLINK-1210 3.6 18:31:08 10° NW 18:34:10 44° NNE 18:37:12 10° E
STARLINK-1221 3.6 18:31:35 10° NW 18:34:37 44° NNE 18:37:39 10° E
STARLINK-1219 3.6 18:32:02 10° NW 18:35:04 44° NNE 18:38:06 10° E
STARLINK-1222 3.6 18:32:29 10° NW 18:35:31 44° NNE 18:38:31 10° E
STARLINK-1211 3.6 18:32:56 10° NW 18:35:59 45° NNE 18:38:58 10° E
STARLINK-1214 3.6 18:33:23 10° NW 18:36:26 45° NNE 18:39:23 11° E
STARLINK-1245 3.5 18:33:52 10° NW 18:36:53 45° NNE 18:39:48 11° E
STARLINK-1238 3.5 18:34:16 10° NW 18:37:20 45° NNE 18:40:15 11° E
Meteor 1-16 Rocket 4.1 18:32:41 10° S 18:38:06 80° E 18:43:44 10° NNE
ERBS 4.1 18:35:30 10° NNW 18:38:13 22° NNE 18:40:56 10° ENE
STARLINK-1205 3.5 18:35:13 10° NW 18:38:15 46° NNE 18:41:07 11° E
Cosmos 614 Rocket 4.0 18:33:18 10° S 18:38:28 66° ESE 18:43:38 10° NNE
CZ-2C R/B 2.9 18:33:51 10° SSE 18:38:38 68° ENE 18:43:21 10° N
STARLINK-1204 3.5 18:35:40 10° NW 18:38:42 46° NNE 18:41:33 11° E
APEX 4.3 18:32:27 10° NNW 18:38:59 77° ENE 18:44:13 10° SSE
MONITOR-E 3.8 18:39:28 10° SSE 18:42:03 57° ENE 18:44:40 10° N
STARLINK-29 3.0 18:39:57 10° SW 18:43:04 54° SE 18:46:14 10° ENE
Cosmos 1190 Rocket 4.2 18:39:24 10° S 18:44:32 52° ESE 18:49:40 10° NNE
SJ-6B 3.0 18:41:08 10° SSE 18:45:10 58° ENE 18:49:15 10° N
Aureole 1 Rocket 4.1 18:38:15 10° S 18:45:38 69° ESE 18:51:23 10° NNE
Resurs 1-3 4.5 18:41:47 10° SE 18:45:40 32° ENE 18:49:34 10° N
Cosmos 1300 4.0 18:43:55 10° SE 18:46:51 21° E 18:49:48 10° NE
BREEZE-M DEB (TANK) 3.7 18:41:12 10° WNW 18:48:20 84° NNE 18:50:46 14° ESE
STARLINK-60 3.4 18:47:25 10° WSW 18:50:41 66° NNW 18:53:57 10° ENE
Cosmos 2369 Rocket 4.1 18:46:00 10° NW 18:50:55 31° WSW 18:55:46 10° SSW
SL-24 R/B 4.3 18:48:31 10° NNE 18:52:13 36° E 18:55:39 10° SSE
CZ-2C R/B 4.1 18:50:38 10° NNE 18:55:07 44° E 18:59:30 10° S
STARLINK-1237 4.4 18:52:32 10° NW 18:56:30 43° NNE 18:59:54 13° E
Cosmos 2058 Rocket 3.2 18:54:45 10° S 18:59:10 58° E 19:03:36 10° NNE
STARLINK-1202 4.4 18:57:32 10° NW 19:01:32 45° NNE 19:04:42 15° E
Cosmos 1726 Rocket 3.6 18:57:24 10° S 19:01:49 86° WNW 19:06:18 10° N
SL-08 RB Rocket 3.7 18:57:37 10° SSE 19:02:10 76° ENE 19:06:48 10° N
Cosmos 1461 3.2 18:59:14 10° NW 19:03:48 79° SW 19:08:01 13° SSE
STARLINK-1228 2.7 19:00:53 10° WNW 19:03:50 82° SW 19:05:31 23° SE
Cosmos 921 Rocket 2.9 19:01:57 10° NNW 19:06:08 68° ENE 19:09:43 14° SSE
DMSP B5D2-2 4.4 19:01:17 10° NNE 19:06:17 44° E 19:11:17 10° S
Cosmos 1703 3.9 19:02:30 10° NNW 19:06:25 59° W 19:10:19 10° S
Cosmos 1726 4.0 19:03:12 10° SW 19:06:37 34° WNW 19:10:03 10° N
Meteor 2-17 Rocket 4.5 19:00:55 10° N 19:07:07 89° ENE 19:13:17 10° S
Cosmos 2341 Rocket 4.2 19:00:57 10° N 19:07:12 54° ENE 19:13:22 10° SSE
SL-4 R/B 2.5 19:04:01 10° W 19:07:17 45° NNW 19:10:38 10° ENE
CZ-4C R/B 4.3 19:04:41 10° NNW 19:10:03 25° NNE 19:16:08 10° ENE
Cosmos 407 Rocket 3.5 19:04:58 10° SSW 19:10:06 82° WNW 19:15:16 10° NNE
Cosmos 1908 3.7 19:06:26 10° SSW 19:10:17 65° W 19:14:10 10° N
Cosmos 1340 Rocket 2.7 19:06:41 10° S 19:10:44 81° E 19:14:46 10° NNE
FREGAT/IRIS 3.9 19:08:31 10° SSW 19:11:04 36° W 19:13:37 10° NNW
STARLINK-1246 4.2 19:07:29 10° NW 19:11:31 49° NNE 19:14:15 19° E
RESURS DK-1 4.4 19:10:05 10° N 19:12:36 15° NE 19:14:21 12° ENE
Cosmos 2228 3.8 19:08:32 10° SSW 19:12:46 55° WNW 19:17:04 10° N
STARLINK-1201 3.0 19:09:38 10° WNW 19:12:54 77° NNE 19:14:33 27° ESE
Cosmos 676 Rocket 4.0 19:08:34 10° S 19:13:43 57° ESE 19:18:52 10° NNE
COSMOS 2406 4.4 19:13:01 19° ESE 19:14:01 20° E 19:17:59 10° NE
STARLINK-1224 4.1 19:12:29 10° NW 19:16:33 51° NNE 19:19:04 21° E
Cosmos 2218 Rocket 4.5 19:12:29 10° N 19:18:20 41° ENE 19:22:17 20° SE
STARLINK-1203 4.0 19:14:37 10° WNW 19:18:46 55° NNE 19:21:13 23° E
MetOp-A 4.1 19:13:43 10° SSE 19:19:04 80° ENE 19:24:27 10° NNW
Cosmos 2058 4.0 19:16:27 10° NNE 19:20:01 27° ENE 19:21:10 24° E
Resurs 01 Rocket 1.9 19:17:44 20° SE 19:20:30 50° ENE 19:24:46 10° N
STARLINK-1225 4.1 19:17:28 10° NW 19:21:33 54° NNE 19:23:51 24° E
MOS 1 Rocket 3.7 19:17:33 10° NNE 19:22:55 59° E 19:28:16 10° S
STARLINK-52 3.0 19:20:14 10° WSW 19:23:27 79° NNW 19:25:57 16° ENE
CZ-2C R/B 2.6 19:19:08 10° NNE 19:24:13 54° E 19:29:20 10° S
Nadezhda 1 Rocket 4.4 19:18:41 10° SSW 19:25:03 70° W 19:31:24 10° N
BREEZE M DEB (TANK) 3.0 19:22:57 10° SSW 19:25:58 46° SE 19:33:48 10° ENE
STARLINK-1230 4.0 19:22:26 10° WNW 19:26:32 56° NNE 19:28:37 26° E
Cosmos 1812 Rocket 4.2 19:25:21 26° SE 19:26:42 32° E 19:30:35 10° NNE
Cosmos 962 Rocket 4.4 19:21:56 10° N 19:28:07 81° E 19:34:09 10° S
SPOT 3 Rocket 3.6 19:22:57 10° SSE 19:28:10 82° WSW 19:33:24 10° NNW
ARGOS 4.1 19:24:32 10° S 19:29:44 49° W 19:34:57 10° NNW
Cosmos 1697 Rocket 4.2 19:25:41 10° N 19:30:10 23° NE 19:32:44 17° E
SL-8 Rocket 4.1 19:24:29 10° N 19:30:45 59° ENE 19:35:13 20° SSE
STARLINK-1243 3.9 19:27:24 10° WNW 19:31:30 60° NNE 19:33:24 29° E
FALCON 9 DEB 3.4 19:28:18 10° WSW 19:31:48 71° NNW 19:34:33 15° NE
Iridium 2 4.0 19:33:27 34° SE 19:34:29 44° E 19:38:08 10° NNE
Cosmos 2181 Rocket 4.0 19:29:12 10° S 19:35:17 58° E 19:41:19 10° NNE
Cosmos 1954 Rocket 3.9 19:30:05 10° SSW 19:35:19 82° ESE 19:40:33 10° NNE
USA 186 4.3 19:32:48 10° SSW 19:35:23 21° W 19:37:54 10° NW
STARLINK-1236 3.8 19:32:22 10° WNW 19:36:30 63° NNE 19:38:11 33° E
STARLINK-67 4.4 19:37:12 10° W 19:39:10 19° SW 19:39:24 19° SW
Cosmos 1741 Rocket 4.5 19:41:05 26° SSE 19:43:21 39° ESE 19:48:17 10° NE
Cosmos 2366 rocket 4.0 19:38:48 10° N 19:44:53 59° ENE 19:48:11 27° SSE
Cosmos 1076 Rocket 3.7 19:41:01 10° N 19:45:14 52° ENE 19:46:20 40° SE
STARLINK-1269 3.7 19:42:19 10° WNW 19:46:29 71° NNE 19:47:44 42° E
BREEZE-M DEB (TANK) 4.3 19:42:23 10° SW 19:45:56 28° S 19:45:56 28° S
Cosmos 1959 Rocket 4.5 19:42:51 10° N 19:49:09 66° E 19:52:36 27° SSE
Cosmos 1656 4.1 19:43:51 10° NNW 19:49:20 46° ENE 19:51:23 33° ESE
Cosmos 1763 Rocket 3.8 19:44:51 10° NNW 19:49:53 49° ENE 19:51:29 36° ESE
STARLINK-1200 3.6 19:47:18 10° WNW 19:51:28 76° NNE 19:52:31 48° ESE
SPOT 1/Viking Rocket 4.2 19:50:06 32° E 19:51:31 38° ENE 19:56:19 10° N
GRACE-FO 1 4.5 19:50:50 43° S 19:51:59 83° E 19:55:42 10° N
GRACE-FO 2 4.5 19:51:14 43° S 19:52:22 84° E 19:56:06 10° N
Cosmos 1455 4.0 19:56:33 20° NE 19:56:33 20° NE 19:58:11 10° NNE
STARLINK-1234 4.2 19:52:59 10° WNW 19:55:47 30° SW 19:55:48 30° SW
STARLINK-1209 4.3 19:53:29 10° WNW 19:56:14 28° SW 19:56:15 28° SW
STARLINK-1192 3.5 19:52:16 10° WNW 19:56:27 81° NNE 19:57:18 55° ESE
STARLINK-1233 3.7 19:53:44 10° WNW 19:56:38 40° SW 19:56:38 40° SW
STARLINK-1212 3.7 19:54:13 10° WNW 19:57:04 40° SW 19:57:04 40° SW
STARLINK-1105 3.8 19:54:38 10° WNW 19:57:31 40° SW 19:57:31 40° SW
STARLINK-1206 3.8 19:55:07 10° WNW 19:57:55 39° SW 19:57:55 39° SW
STARLINK-1247 3.8 19:55:36 10° WNW 19:58:22 38° SW 19:58:22 38° SW
Iridium 4 Rocket 3.0 19:54:33 10° N 19:58:40 56° E 19:59:06 53° ESE
STARLINK-1227 3.8 19:55:59 10° WNW 19:58:47 38° SW 19:58:47 38° SW
STARLINK-1218 3.9 19:56:30 10° WNW 19:59:13 38° SW 19:59:13 38° SW
USA 234 3.5 19:53:32 10° ENE 19:59:42 43° SE 20:05:51 10° SSW
STARLINK-1226 3.9 19:56:56 10° WNW 19:59:40 37° SW 19:59:40 37° SW
STARLINK-1254 3.9 19:57:22 10° WNW 20:00:06 37° SW 20:00:06 37° SW
Dummy Sat-02 4.5 19:59:55 66° SE 20:00:19 75° E 20:04:06 10° N
Cosmos 1980 Rocket 3.7 19:55:59 10° N 20:00:19 22° NE 20:02:02 19° ENE
STARLINK-1215 3.9 19:57:51 10° WNW 20:00:32 36° SW 20:00:32 36° SW
STARLINK-1231 4.0 19:58:18 10° WNW 20:00:58 36° SW 20:00:58 36° SW
Cosmos 1174 4.1 19:57:03 10° NNW 20:01:16 83° NE 20:02:39 47° SE
STARLINK-1244 3.5 19:57:21 10° WNW 20:01:31 86° NNE 20:02:10 62° ESE
Cosmos 1892 2.7 19:58:15 10° N 20:02:07 61° ENE 20:02:13 60° E
STARLINK-1232 4.0 19:59:14 10° WNW 20:01:50 35° SW 20:01:50 35° SW
STARLINK-1217 4.0 19:59:40 10° WNW 20:02:16 35° SW 20:02:16 35° SW
Abrixas rocket 3.5 20:00:05 10° W 20:02:07 29° WSW 20:02:07 29° WSW
STARLINK-1208 4.1 20:00:05 10° WNW 20:02:43 35° SW 20:02:43 35° SW
STARLINK-1229 4.1 20:00:35 10° WNW 20:03:07 34° SW 20:03:07 34° SW
H-2A R/B 4.4 19:59:46 10° SW 20:03:33 20° W 20:07:17 10° NW
STARLINK-1271 4.1 20:01:02 10° WNW 20:03:34 34° SW 20:03:34 34° SW
STARLINK-1270 4.2 20:01:30 10° WNW 20:04:00 33° WSW 20:04:00 33° WSW
STARLINK-1154 4.2 20:01:57 10° WNW 20:04:26 33° WSW 20:04:26 33° WSW
ATLAS 5 CENTAUR R/B 3.2 20:01:33 10° WSW 20:05:28 35° NW 20:09:55 10° NNE
STARLINK-1197 4.2 20:02:51 10° WNW 20:05:18 32° WSW 20:05:18 32° WSW
STARLINK-1189 4.3 20:03:17 10° WNW 20:05:43 32° WSW 20:05:43 32° WSW
STARLINK-1138 3.4 20:02:14 10° WNW 20:06:24 89° SW 20:06:52 70° SE
STARLINK-1198 4.3 20:03:46 10° WNW 20:06:10 31° WSW 20:06:10 31° WSW
Cosmos 1825 3.7 20:03:23 10° NNE 20:05:39 24° NE 20:05:39 24° NE
STARLINK-1188 4.3 20:04:12 10° WNW 20:06:35 31° WSW 20:06:35 31° WSW
ATLAS 2AS CENTAUR R/B 4.3 20:00:53 10° NW 20:07:07 30° WSW 20:12:55 10° SSW
Cosmos-2242 4.0 20:08:41 31° ENE 20:08:41 31° ENE 20:11:39 10° NNE
STARLINK-1187 4.5 20:05:20 10° WNW 20:07:42 28° WSW 20:07:42 28° WSW
STARLINK-1199 4.4 20:06:10 10° WNW 20:08:31 30° WSW 20:08:31 30° WSW
STARLINK-1191 4.4 20:06:37 10° WNW 20:08:56 29° WSW 20:08:56 29° WSW
STARLINK-1210 4.4 20:07:05 10° WNW 20:09:23 29° WSW 20:09:23 29° WSW
STARLINK-1221 4.5 20:07:32 10° WNW 20:09:49 29° WSW 20:09:49 29° WSW
COSMOS 2455 3.8 20:04:45 10° NW 20:10:24 43° WSW 20:13:57 21° S
STARLINK-1219 4.5 20:07:59 10° WNW 20:10:15 28° WSW 20:10:15 28° WSW
STARLINK-1143 3.4 20:07:13 10° WNW 20:11:23 84° SSW 20:11:39 76° SSE
Cosmos 1356 Rocket 4.2 20:13:46 39° ENE 20:13:46 39° ENE 20:16:53 10° NNE
ERBS 2.8 20:11:29 10° NW 20:14:20 59° WNW 20:14:20 59° WNW
STARLINK-1241 3.5 20:12:14 10° WNW 20:16:23 78° SSW 20:16:28 77° SSW
STARLINK-29 4.5 20:16:24 10° W 20:19:22 33° NNW 20:19:44 32° N
IGS 5A 3.4 20:20:27 70° ENE 20:20:27 70° ENE 20:24:30 10° N
SAR-Lupe-2 3.8 20:17:35 10° N 20:21:07 65° WNW 20:21:14 64° W
STARLINK-1239 3.6 20:17:13 10° WNW 20:21:14 72° SW 20:21:14 72° SW
ATLAS CENTAUR R/B 2.5 20:19:03 10° NNW 20:22:10 29° NNE 20:22:10 29° NNE
Spot 2 Rocket 3.5 20:22:15 49° S 20:23:40 80° WSW 20:28:48 10° NNW
Cosmos 1821 Rocket 4.2 20:19:19 10° N 20:25:33 51° ENE 20:26:40 46° ESE
USA 32 3.9 20:20:41 10° N 20:25:55 65° E 20:26:23 61° ESE
STARLINK-1240 3.8 20:22:12 10° WNW 20:26:01 64° WSW 20:26:01 64° WSW
Cosmos 1850 Rocket 3.9 20:24:22 27° SSW 20:27:16 87° WNW 20:32:29 10° NNE
Cosmos 841 Rocket 3.6 20:23:54 10° NNW 20:29:08 59° ENE 20:29:32 57° E
Terra 2.6 20:29:53 36° ENE 20:29:53 36° ENE 20:33:54 10° N
SPOT 5 3.2 20:31:40 45° NE 20:31:40 45° NE 20:35:14 10° N
STARLINK-1216 4.0 20:27:10 10° WNW 20:30:47 57° WSW 20:30:47 57° WSW
Cosmos 2082 Rocket 3.8 20:34:09 20° ENE 20:34:09 20° ENE 20:36:14 10° NE
Cosmos 2278 4.3 20:26:30 10° NNW 20:31:51 40° NE 20:32:29 39° ENE
Meteor 2-10 Rocket 3.4 20:33:52 67° ESE 20:34:02 68° E 20:39:27 10° NNE
SL-08 R/B 4.4 20:28:42 10° N 20:34:53 87° W 20:36:45 49° S
STARLINK-1237 4.2 20:32:09 10° WNW 20:35:33 50° WSW 20:35:33 50° WSW
Cosmos 1833 Rocket 3.1 20:39:02 44° ENE 20:39:02 44° ENE 20:43:18 10° NE
CARTOSAT-1 4.0 20:39:31 54° NNE 20:39:31 54° NNE 20:43:07 10° N
STARLINK-1202 4.5 20:37:10 10° WNW 20:40:21 44° W 20:40:21 44° W
Cosmos 468 Rocket 4.5 20:36:33 10° NNW 20:41:34 52° WSW 20:42:31 45° SW
ERS-1 Rocket 2.8 20:47:01 86° E 20:47:02 86° ENE 20:52:06 10° NNW
SL-4 R/B 3.4 20:44:11 10° WNW 20:46:33 30° NNW 20:46:33 30° NNW
Cosmos 1408 3.9 20:44:26 10° NNW 20:46:55 40° NNW 20:46:55 40° NNW
RESURS DK-1 3.1 20:47:00 10° NNW 20:50:15 52° NW 20:50:15 52° NW
Cosmos 1766 Rocket 4.1 20:49:14 10° N 20:52:50 57° N 20:52:50 57° N
BREEZE M DEB (TANK) 3.8 20:48:44 10° W 20:53:25 46° WNW 20:53:25 46° WNW
Cosmos 1570 Rocket 4.0 20:48:59 10° NNW 20:54:20 73° WSW 20:54:32 72° SW
Okean 3 Rocket 4.0 20:50:49 10° NNW 20:54:34 61° NNW 20:54:34 61° NNW
Resurs 01 Rocket 3.9 20:55:17 14° WSW 20:57:16 18° W 21:00:18 10° NW
COSMOS 2406 3.4 20:54:52 30° SW 20:57:43 70° WNW 21:03:27 10° NNE
CZ-4C R/B 3.1 20:52:58 10° NW 20:59:59 62° NE 21:01:49 50° E
Cosmos 2151 4.1 21:04:22 10° NNW 21:07:34 41° WNW 21:07:34 41° WNW
Cosmos 1697 Rocket 2.8 21:09:03 10° NNW 21:14:29 71° W 21:14:29 71° W
Cosmos 2369 3.7 21:09:12 10° NNW 21:14:33 72° W 21:14:33 72° W
Cosmos 540 Rocket 4.5 21:30:17 10° NNW 21:34:20 40° WNW 21:34:20 40° WNW
SL-16 R/B 3.4 21:31:31 10° NNW 21:36:11 34° NE 21:36:11 34° NE
Cosmos 2360 Rocket 4.1 21:33:04 10° N 21:36:58 19° NE 21:37:32 18° NE
USA 234 3.4 21:36:27 10° NE 21:42:57 69° NNW 21:49:26 10° WSW
Cosmos 2322 Rocket 3.4 21:38:34 10° NNW 21:43:04 32° NE 21:43:04 32° NE
Cosmos 1980 Rocket 2.7 21:39:19 10° NNW 21:43:48 57° NW 21:43:48 57° NW
ASTEX 1 4.5 21:50:00 42° NNW 21:50:00 42° NNW 21:53:26 10° NNW
Meteor 2-3 Rocket 4.5 21:50:37 10° NNW 21:55:21 47° WNW 21:55:21 47° WNW
ATLAS CENTAUR R/B 4.3 21:58:04 10° WNW 21:58:21 11° WNW 21:58:21 11° WNW
Terra 3.8 22:08:45 24° WNW 22:08:45 24° WNW 22:11:25 10° NW
Mayak 1.1 22:03:26 10° N 22:04:58 21° N 22:04:58 21° N
Cosmos 2082 Rocket 3.1 22:15:56 45° NW 22:15:56 45° NW 22:20:44 10° NNE
Cosmos 1833 Rocket 4.3 22:20:38 26° WNW 22:22:03 29° NW 22:26:57 10° N
Cosmos 2219 Rocket 4.2 22:30:11 10° N 22:34:05 19° NE 22:34:41 18° NE
Cosmos 2344 4.5 22:27:11 10° NW 22:36:56 68° WSW 22:38:34 63° SSW
CZ-4C R/B 3.9 22:41:45 10° NW 22:47:00 36° W 22:47:00 36° W
COSMOS 2428 4.4 22:58:59 10° N 23:03:37 27° NE 23:03:37 27° NE
SL-16 R/B 4.0 23:15:33 10° NW 23:18:02 25° NW 23:18:02 25° NW
Cosmos 2360 Rocket 3.5 23:16:08 10° NNW 23:19:17 35° NNW 23:19:17 35° NNW
USA 234 4.4 23:19:28 10° NE 23:25:23 38° N 23:31:19 10° WNW
Cosmos 2322 Rocket 4.0 23:22:29 10° NW 23:24:52 24° NW 23:24:52 24° NW
Cosmos 2333 Rocket 3.4 23:38:36 10° NNW 23:42:25 39° N 23:42:25 39° N
Cosmos 2237 Rocket 4.1 23:40:26 10° N 23:44:58 24° NE 23:46:25 21° ENE
SL-16 R/B 3.8 23:48:42 32° ENE 23:49:25 33° ENE 23:54:50 10° N
